Location: Beadle
(51.4667°N, 109.0000°W)
Time: 04:34:21
(UTC+00:00)

Envisat - Pass Details

Date: 21 January 2022
Orbit: 764 x 765 km, 98.2° (Epoch: 25 May)

Event Time Altitude Azimuth Distance (km) Brightness Sun altitude
Rises 14:01:25 0° 5° (N) 3,245 6.1 -10.3°
Reaches altitude 10° 14:04:21 10° 348° (NNW) 2,314 5.2 -9.8°
Maximum altitude 14:07:47 19° 305° (NW) 1,785 4.3 -9.3°
Drops below altitude 10° 14:11:13 10° 262° (W) 2,305 4.9 -8.8°
Sets 14:14:08 0° 245° (WSW) 3,227 5.8 -8.4°
